sat.trackr.live / text

‹ back to catalog

STARLINK-6281

NORAD 56410 · 2023-061AN

PAYLOAD ACTIVE UNKNOWN

§ Identity

Operator
Country
US
Launch date
2023-05-04
Launch site
AFETR
Launch vehicle
Mass (kg)
RCS (m²)

Purposes: comms

External: N2YO · Heavens-Above · Gunter

§ Orbital elements

Epoch: 2026-05-25T05:17:21.486912Z

Period
94.27 min
Inclination
43.0038°
Eccentricity
0.0001661
Mean motion
15.27577922 rev/d
Perigee alt
481.9 km
Apogee alt
484.2 km
Semi-major
6,861.2 km
B*
2.4755e-5
RAAN
114.4305°
Arg perigee
285.9119°
Mean anomaly
74.1550°
Rev number
16,858

§ Raw data

STARLINK-62811 56410U 23061AN  26145.22038758  .00000419  00000+0  24755-4 0  99912 56410  43.0038 114.4305 0001661 285.9119  74.1550 15.27577922168580

JSON: /api/v1/satellites/56410 · /tle

For live sub-satellite position, see the globe view (requires WebGL).

§ Visibility from observer

Set your observer location to see the next 7 days of passes ≥ 10°. The values pass through the URL so the page stays shareable.

No JS? Fill the form by hand. The geolocation button needs JavaScript.